Weather History for Sidney-Richland, MT

Change the Weather History Date:

Sunday, March 10, 2013

  Actual Average Record
Temperature  
Mean Temperature 22 °F -  
Max Temperature 35 °F 43 °F 71 °F (2012)
Min Temperature 8 °F 18 °F -20 °F (2002)
Degree Days  
Heating Degree Days 44    
Moisture  
Dew Point 17 °F    
Average Humidity 80    
Maximum Humidity 92    
Minimum Humidity 60    
Precipitation  
Precipitation 0.00 in - - ()
Sea Level Pressure  
Sea Level Pressure 30.17 in    
Wind  
Wind Speed 3 mph (South)    
Max Wind Speed 9 mph    
Max Gust Speed -    
Visibility 8 miles    
Events      
Averages and records for this station are not official NWS values.
T = Trace of Precipitation, MM = Missing Value Source: NWS Daily Summary

Daily Weather History Graph

Daily Weather History Graph

Search for Another Location

Airport:

Trip Planner

Search our weather history database for the weather conditions in past years. The results will help you decide how hot, cold, wet, or windy it might be!

Date:

Astronomy

Mar. 10, 2013 Rise Set
Actual Time 7:19 AM MDT 6:55 PM MDT
Civil Twilight 6:48 AM MDT 7:26 PM MDT
Nautical Twilight 6:12 AM MDT 8:02 PM MDT
Astronomical Twilight 5:36 AM MDT 8:38 PM MDT
Moon 6:23 AM MDT (3/10) 6:05 PM MDT (3/10)
Length of Visible Light 12h 37m
Length of Day
11h 36m
Waning Crescent, 1% of the Moon is Illuminated
Mar 10
Waning Crescent
Mar 11
New
Mar 19
First Quarter
Mar 27
Full
Apr 2
Last Quarter

Hourly Weather History & Observations

Time (MDT) Temp. Windchill Dew Point Humidity Pressure Visibility Wind Dir Wind Speed Gust Speed Precip Events Conditions
12:15 AM 14.0 °F - 10.4 °F 86% 30.27 in 8.0 mi Calm Calm - N/A   Clear
12:35 AM 10.4 °F - 6.8 °F 85% 30.28 in 6.0 mi Calm Calm - N/A   Clear
1:15 AM 10.4 °F - 6.8 °F 85% 30.28 in 7.0 mi Calm Calm - N/A   Clear
1:35 AM 12.2 °F 6.1 °F 10.4 °F 92% 30.27 in 7.0 mi NNW 3.5 mph - N/A   Clear
1:55 AM 10.4 °F 0.8 °F 8.6 °F 92% 30.27 in 6.0 mi NW 5.8 mph - N/A   Clear
3:15 AM 12.2 °F 6.1 °F 8.6 °F 85% 30.26 in 6.0 mi NNW 3.5 mph - N/A   Clear
3:35 AM 10.4 °F 4.0 °F 6.8 °F 85% 30.26 in 7.0 mi West 3.5 mph - N/A   Clear
3:55 AM 10.4 °F - 8.6 °F 92% 30.26 in 7.0 mi Calm Calm - N/A   Clear
4:15 AM 10.4 °F 4.0 °F 6.8 °F 85% 30.26 in 7.0 mi West 3.5 mph - N/A   Clear
4:35 AM 10.4 °F - 6.8 °F 85% 30.27 in 7.0 mi Calm Calm - N/A   Clear
4:55 AM 10.4 °F - 6.8 °F 85% 30.27 in 6.0 mi Calm Calm - N/A   Clear
5:15 AM 10.4 °F 4.0 °F 5.0 °F 79% 30.27 in 7.0 mi West 3.5 mph - N/A   Clear
6:35 AM 8.6 °F - 5.0 °F 85% 30.29 in 7.0 mi Calm Calm - N/A   Clear
6:55 AM 8.6 °F - 6.8 °F 92% 30.30 in 5.0 mi Calm Calm - N/A   Clear
7:15 AM 8.6 °F - 5.0 °F 85% 30.30 in 6.0 mi Calm Calm - N/A   Clear
7:35 AM 8.6 °F - 6.8 °F 92% 30.30 in 6.0 mi Calm Calm - N/A   Clear
7:55 AM 10.4 °F - 6.8 °F 85% 30.30 in 5.0 mi Calm Calm - N/A   Clear
8:15 AM 10.4 °F - 5.0 °F 79% 30.30 in 5.0 mi Calm Calm - N/A   Clear
8:35 AM 10.4 °F - 8.6 °F 92% 30.30 in 5.0 mi Calm Calm - N/A   Clear
8:55 AM 12.2 °F - 10.4 °F 92% 30.30 in 5.0 mi Calm Calm - N/A   Clear
9:15 AM 14.0 °F 6.5 °F 10.4 °F 86% 30.29 in 5.0 mi South 4.6 mph - N/A   Clear
9:35 AM 15.8 °F 8.6 °F 10.4 °F 79% 30.30 in 5.0 mi South 4.6 mph - N/A   Clear
9:55 AM 15.8 °F - 12.2 °F 86% 30.30 in 5.0 mi Calm Calm - N/A   Clear
10:15 AM 17.6 °F 8.2 °F 14.0 °F 86% 30.28 in 5.0 mi South 6.9 mph - N/A   Clear
10:35 AM 19.4 °F 10.4 °F 15.8 °F 86% 30.27 in 5.0 mi SSE 6.9 mph - N/A   Clear
10:55 AM 19.4 °F 10.4 °F 15.8 °F 86% 30.27 in 6.0 mi South 6.9 mph - N/A   Clear
11:15 AM 21.2 °F 12.6 °F 17.6 °F 86% 30.25 in 7.0 mi South 6.9 mph - N/A   Clear
11:35 AM 24.8 °F 19.1 °F 17.6 °F 74% 30.25 in 9.0 mi SSE 4.6 mph - N/A   Clear
11:55 AM 24.8 °F 17.9 °F 17.6 °F 74% 30.25 in 9.0 mi South 5.8 mph - N/A   Clear
12:15 PM 26.6 °F 20.0 °F 19.4 °F 74% 30.25 in 9.0 mi SSW 5.8 mph - N/A   Clear
12:35 PM 26.6 °F 19.1 °F 21.2 °F 80% 30.24 in 9.0 mi SW 6.9 mph - N/A   Clear
12:55 PM 26.6 °F 20.0 °F 21.2 °F 80% 30.23 in 10.0 mi SSW 5.8 mph - N/A   Partly Cloudy
1:15 PM 28.4 °F 22.2 °F 21.2 °F 74% 30.21 in 9.0 mi South 5.8 mph - N/A   Clear
1:35 PM 28.4 °F 21.2 °F 21.2 °F 74% 30.20 in 10.0 mi SSW 6.9 mph - N/A   Clear
1:55 PM 30.2 °F 24.3 °F 21.2 °F 69% 30.19 in 10.0 mi SW 5.8 mph - N/A   Clear
2:15 PM 30.2 °F 26.7 °F 19.4 °F 64% 30.18 in 10.0 mi SSW 3.5 mph - N/A   Clear
2:35 PM 32.0 °F - 19.4 °F 60% 30.17 in 10.0 mi Calm Calm - N/A   Clear
2:55 PM 32.0 °F 28.7 °F 19.4 °F 60% 30.16 in 10.0 mi SW 3.5 mph - N/A   Clear
3:15 PM 33.8 °F 30.8 °F 21.2 °F 60% 30.14 in 10.0 mi South 3.5 mph - N/A   Clear
3:35 PM 33.8 °F 28.6 °F 21.2 °F 60% 30.13 in 10.0 mi SSE 5.8 mph - N/A   Clear
4:15 PM 33.8 °F 27.7 °F 24.8 °F 70% 30.11 in 10.0 mi East 6.9 mph - N/A   Clear
4:35 PM 35.6 °F 30.7 °F 24.8 °F 65% 30.11 in 10.0 mi East 5.8 mph - N/A   Clear
4:55 PM 35.6 °F 29.2 °F 26.6 °F 70% 30.09 in 10.0 mi East 8.1 mph - N/A   Clear
5:15 PM 35.6 °F 29.9 °F 24.8 °F 65% 30.08 in 10.0 mi ESE 6.9 mph - N/A   Clear
5:35 PM 33.8 °F 27.7 °F 26.6 °F 75% 30.08 in 10.0 mi ESE 6.9 mph - N/A   Clear
5:55 PM 33.8 °F 29.6 °F 24.8 °F 70% 30.08 in 10.0 mi ESE 4.6 mph - N/A   Clear
6:15 PM 33.8 °F 29.6 °F 24.8 °F 70% 30.07 in 10.0 mi SE 4.6 mph - N/A   Clear
6:35 PM 32.0 °F 27.5 °F 24.8 °F 75% 30.07 in 10.0 mi ESE 4.6 mph - N/A   Clear
6:55 PM 30.2 °F 25.4 °F 24.8 °F 80% 30.06 in 10.0 mi ESE 4.6 mph - N/A   Clear
7:15 PM 30.2 °F 26.7 °F 23.0 °F 75% 30.05 in 10.0 mi East 3.5 mph - N/A   Clear
7:35 PM 28.4 °F - 21.2 °F 74% 30.05 in 10.0 mi Calm Calm - N/A   Clear
8:15 PM 26.6 °F - 23.0 °F 86% 30.03 in 10.0 mi Calm Calm - N/A   Clear
8:35 PM 28.4 °F 24.6 °F 24.8 °F 86% 30.02 in 10.0 mi SSW 3.5 mph - N/A   Partly Cloudy
9:15 PM 28.4 °F 24.6 °F 23.0 °F 80% 29.99 in 10.0 mi South 3.5 mph - N/A   Scattered Clouds
9:55 PM 28.4 °F 22.2 °F 24.8 °F 86% 29.97 in 10.0 mi SSW 5.8 mph - N/A   Scattered Clouds
10:15 PM 28.4 °F 24.6 °F 23.0 °F 80% 29.96 in 10.0 mi South 3.5 mph - N/A   Scattered Clouds
11:15 PM 28.4 °F - 24.8 °F 86% 29.94 in 10.0 mi Calm Calm - N/A   Overcast
11:35 PM 30.2 °F - 24.8 °F 80% 29.92 in 10.0 mi Calm Calm - N/A   Overcast
11:55 PM 30.2 °F - 24.8 °F 80% 29.91 in 10.0 mi Calm Calm - N/A   Overcast
12:15 AM 30.2 °F 21.9 °F 24.8 °F 80% 29.90 in 10.0 mi SSW 9.2 mph - N/A   Overcast
12:35 AM 30.2 °F 22.6 °F 24.8 °F 80% 29.88 in 10.0 mi South 8.1 mph - N/A   Overcast
12:55 AM 30.2 °F 24.3 °F 26.6 °F 86% 29.87 in 10.0 mi SSW 5.8 mph - N/A   Overcast